DW9996 Weather Reports


Display with metric or nautical units.
time (UTC)temp
F
wind
direction
speed
MPH
gust
MPH
rain 1hr
in
rain 24hr
in
rain mn
in
humidity
%
barometer
mb
20260508034555 56 295 3.0 5.0 0.00 0.00 0.00 51 1008.6
20260508033100 57 288 2.0 4.0 0.00 0.00 0.00 50 1008.5
20260508031556 59 285 2.0 6.0 0.00 0.00 0.00 46 1008.4
20260508030054 61 263 4.0 8.0 0.00 0.00 0.00 44 1008.1
20260508024603 61 309 4.0 7.0 0.00 0.00 0.00 43 1008.1
20260508023055 60 286 2.0 4.0 0.00 0.00 0.00 42 1007.8
20260508021555 62 307 1.0 6.0 0.00 0.00 0.00 36 1007.6
20260508020053 63 304 2.0 4.0 0.00 0.00 0.00 34 1007.3
20260508014552 65 330 3.0 9.0 0.00 0.00 0.00 31 1007.2
20260508013051 66 350 5.0 12.0 0.00 0.00 0.00 30 1007.1
20260508011605 65 346 5.0 9.0 0.00 0.00 0.00 31 1006.9
20260508010049 67 315 4.0 9.0 0.00 0.00 0.00 30 1007.0
20260508004556 69 355 8.0 13.0 0.00 0.00 0.00 27 1006.9
20260508003049 70 317 6.0 11.0 0.00 0.00 0.00 27 1006.9
20260508001551 69 284 7.0 16.0 0.00 0.00 0.00 28 1006.8
20260508000047 69 332 9.0 16.0 0.00 0.00 0.00 27 1007.0
20260507234553 69 323 9.0 14.0 0.00 0.00 0.00 27 1006.9
20260507233047 69 300 7.0 14.0 0.00 0.00 0.00 28 1006.9
20260507231550 70 319 6.0 13.0 0.00 0.00 0.00 29 1006.9
20260507230044 69 313 7.0 14.0 0.00 0.00 0.00 30 1006.9
20260507224544 69 307 7.0 19.0 0.00 0.00 0.00 29 1006.9
20260507223041 69 314 8.0 14.0 0.00 0.00 0.00 29 1007.0
20260507221539 69 323 7.0 15.0 0.00 0.00 0.00 30 1007.1
20260507220037 68 316 7.0 25.0 0.00 0.00 0.00 31 1007.3
20260507214536 68 319 6.0 18.0 0.00 0.00 0.00 31 1007.3
20260507213043 69 346 9.0 16.0 0.00 0.00 0.00 31 1007.5
20260507211536 68 333 9.0 17.0 0.00 0.00 0.00 30 1007.7
20260507210033 67 322 7.0 16.0 0.00 0.00 0.00 30 1007.8
20260507204532 68 325 8.0 14.0 0.00 0.00 0.00 30 1007.8
20260507203032 68 321 7.0 18.0 0.00 0.00 0.00 31 1007.7
20260507201530 67 323 7.0 16.0 0.00 0.00 0.00 32 1007.7
20260507200029 67 317 7.0 14.0 0.00 0.00 0.00 31 1007.5
20260507194531 67 317 6.0 13.0 0.00 0.00 0.00 32 1007.6
20260507193029 66 347 5.0 13.0 0.00 0.00 0.00 33 1007.6
20260507191527 67 328 9.0 16.0 0.00 0.00 0.00 31 1007.6
20260507190026 69 355 7.0 14.0 0.00 0.00 0.00 32 1007.7
20260507184523 67 323 8.0 14.0 0.00 0.00 0.00 33 1007.9
20260507183022 68 288 9.0 15.0 0.00 0.00 0.00 36 1008.1
20260507181521 67 336 6.0 17.0 0.00 0.00 0.00 35 1008.2
20260507180019 67 338 9.0 15.0 0.00 0.00 0.00 36 1008.3
20260507174517 67 319 6.0 14.0 0.00 0.00 0.00 39 1008.5
20260507173026 65 329 6.0 24.0 0.00 0.00 0.00 40 1008.7
20260507171515 65 360 9.0 17.0 0.00 0.00 0.00 39 1008.8
20260507170013 65 304 7.0 15.0 0.00 0.00 0.00 40 1008.8
20260507164509 64 351 7.0 16.0 0.00 0.00 0.00 41 1008.7
20260507163007 64 321 8.0 15.0 0.00 0.00 0.00 41 1008.9
20260507161517 63 294 5.0 10.0 0.00 0.00 0.00 42 1008.9
20260507160006 64 335 7.0 12.0 0.00 0.00 0.00 41 1009.1
20260507154502 61 339 4.0 14.0 0.00 0.00 0.00 44 1009.2
20260507153057 58 282 4.0 8.0 0.00 0.00 0.00 46 1009.3
20260507151553 56 306 3.0 7.0 0.00 0.00 0.00 45 1009.6
20260507150050 53 288 3.0 6.0 0.00 0.00 0.00 44 1009.6
20260507144613 50 209 3.0 7.0 0.00 0.00 0.00 43 1009.2
20260507143052 49 284 1.0 3.0 0.00 0.00 0.00 42 1009.7
20260507141610 48 309 0.0 1.0 0.00 0.00 0.00 40 1009.7
20260507140049 47 16 0.0 4.0 0.00 0.00 0.00 40 1009.8
20260507134549 47 12 3.0 6.0 0.00 0.00 0.00 40 1009.8
20260507133046 46 355 2.0 4.0 0.00 0.00 0.00 49 1009.7
20260507131546 45 198 0.0 0.0 0.00 0.00 0.00 50 1009.7
20260507130045 45 198 0.0 1.0 0.00 0.00 0.00 51 1009.5
20260507124543 44 198 1.0 3.0 0.00 0.00 0.00 51 1009.6
20260507123046 44 92 0.0 9.0 0.00 0.00 0.00 50 1009.1
20260507121541 44 50 1.0 3.0 0.00 0.00 0.00 52 1008.8
20260507120041 43 50 2.0 3.0 0.00 0.00 0.00 53 1009.1
20260507114540 42 288 5.0 11.0 0.00 0.00 0.00 58 1009.0
20260507113037 42 294 4.0 8.0 0.00 0.00 0.00 55 1008.4
20260507111543 42 297 3.0 7.0 0.00 0.00 0.00 56 1008.3
20260507110037 41 293 2.0 6.0 0.00 0.00 0.00 59 1008.3
20260507104536 41 265 4.0 9.0 0.00 0.00 0.00 58 1008.2
20260507103036 43 296 4.0 9.0 0.00 0.00 0.00 52 1007.9
20260507101543 42 301 2.0 4.0 0.00 0.00 0.00 54 1008.1
20260507100037 41 298 2.0 5.0 0.00 0.00 0.00 56 1008.1
20260507094540 41 309 2.0 10.0 0.00 0.00 0.00 57 1008.3
20260507093034 42 301 2.0 5.0 0.00 0.00 0.00 52 1008.2
20260507091529 44 9 0.0 0.0 0.00 0.00 0.00 49 1008.2
20260507090029 45 9 1.0 3.0 0.00 0.00 0.00 48 1008.1
20260507084523 46 9 0.0 2.0 0.00 0.00 0.00 48 1007.9
20260507083013 48 360 4.0 9.0 0.00 0.00 0.00 45 1008.0
20260507081519 48 34 2.0 5.0 0.00 0.00 0.00 43 1008.1
20260507080008 48 46 0.0 2.0 0.00 0.00 0.00 43 1007.9
20260507074508 48 46 0.0 2.0 0.00 0.00 0.00 42 1008.0
20260507073007 49 60 0.0 4.0 0.00 0.00 0.00 40 1007.9
20260507071501 50 98 2.0 8.0 0.00 0.00 0.00 38 1007.9
20260507064557 52 76 2.0 7.0 0.00 0.00 0.00 39 1007.7
20260507063053 52 79 5.0 10.0 0.00 0.00 0.00 39 1007.9
20260507061550 53 49 4.0 6.0 0.00 0.00 0.00 43 1008.2
20260507060054 54 61 4.0 9.0 0.00 0.00 0.00 37 1007.9
20260507054549 55 50 5.0 15.0 0.00 0.00 0.00 37 1007.9
20260507053051 56 96 7.0 13.0 0.00 0.00 0.00 34 1007.6
20260507051545 56 94 4.0 8.0 0.00 0.00 0.00 33 1007.4
20260507050042 56 103 8.0 12.0 0.00 0.00 0.00 33 1007.4
20260507044554 56 99 6.0 10.0 0.00 0.00 0.00 33 1007.6
20260507043041 57 123 1.0 8.0 0.00 0.00 0.00 33 1007.5
20260507041541 57 93 3.0 7.0 0.00 0.00 0.00 33 1007.4
20260507040040 56 139 2.0 3.0 0.00 0.00 0.00 35 1007.5